contact:dominique.lefevre@mio.osupytheas.fr, maurice.libes@osupytheas.fr, didier.mallarino@osupytheas.fr
Project:EMSO http://www.emso-fr.org/EMSO-France
Depth: 2436.0 m
Title:EMSO Ligure Ouest : Data MII capteur AQUADOPP
Date,Latitude,Longitude,X_East,Y_North,Z_Up,Amplitude_X,Amplitude_Y,Amplitude_Z,Batterie,SoundSpeed,Heading,Pitch,Roll,Pressure,TIS,Speed,Direction
, degrees North, degrees East, m.s-1, m.s-1,m.s-1, 1, 1, 1, Volt, m.s-1, degree, degree, degree, dbar, degree_C, m.s-1, degree
2024-04-07T00:04:03,42.805,6.029,-0.048,-0.029,-0.006,107.0,106.0,105.0,13.4,1505.2,4.6,-0.8,1.8,2471.586,13.28,0.056,238.9
2024-04-07T00:07:03,42.805,6.029,-0.047,-0.032,-0.01,107.0,107.0,104.0,13.4,1505.2,2.1,-0.8,1.8,2471.578,13.29,0.056,235.8
2024-04-07T00:10:03,42.805,6.029,-0.041,-0.059,-0.033,108.0,107.0,103.0,13.3,1505.2,358.2,-0.7,1.8,2471.555,13.29,0.071,214.8
2024-04-07T00:13:03,42.805,6.029,-0.031,-0.06,-0.017,108.0,107.0,104.0,13.3,1505.2,358.8,-0.8,1.9,2471.584,13.29,0.067,207.3
2024-04-07T00:16:03,42.805,6.029,-0.066,-0.026,-0.024,108.0,107.0,103.0,13.4,1505.2,7.1,-0.7,1.8,2471.575,13.29,0.07,248.5
2024-04-07T00:19:03,42.805,6.029,-0.04,-0.06,0.017,107.0,108.0,104.0,13.4,1505.2,356.9,-0.8,1.8,2471.618,13.29,0.072,213.7
2024-04-07T00:22:03,42.805,6.029,-0.057,-0.036,0.007,108.0,107.0,104.0,13.4,1505.2,3.9,-0.8,1.8,2471.541,13.29,0.067,237.7
2024-04-07T00:25:03,42.805,6.029,-0.053,-0.043,0.006,108.0,107.0,105.0,13.3,1505.2,355.3,-0.8,1.8,2471.573,13.29,0.068,230.9
2024-04-07T00:28:03,42.805,6.029,-0.051,-0.031,-0.02,106.0,108.0,104.0,13.4,1505.2,9.0,-0.8,1.8,2471.549,13.29,0.059,238.7
2024-04-07T00:31:03,42.805,6.029,-0.039,-0.048,-0.01,108.0,107.0,104.0,13.4,1505.2,3.0,-0.8,1.8,2471.582,13.29,0.061,219.1
2024-04-07T00:34:03,42.805,6.029,-0.044,-0.038,-0.005,107.0,107.0,106.0,13.4,1505.2,356.6,-0.7,1.8,2471.559,13.29,0.058,229.2
2024-04-07T00:37:03,42.805,6.029,-0.054,-0.024,-0.002,107.0,106.0,104.0,13.4,1505.2,4.7,-0.8,1.8,2471.557,13.29,0.059,246.0
2024-04-07T00:40:03,42.805,6.029,-0.048,-0.018,-0.051,108.0,108.0,104.0,13.4,1505.2,8.4,-0.7,1.8,2471.576,13.29,0.051,249.4
2024-04-07T00:43:03,42.805,6.029,-0.04,-0.036,-0.019,108.0,108.0,104.0,13.3,1505.2,352.6,-0.8,1.8,2471.551,13.29,0.053,228.0
2024-04-07T00:46:03,42.805,6.029,-0.024,-0.035,-0.016,107.0,108.0,104.0,13.3,1505.2,359.4,-0.8,1.8,2471.543,13.29,0.042,214.4
2024-04-07T00:49:03,42.805,6.029,-0.045,-0.046,-0.026,107.0,106.0,105.0,13.4,1505.2,357.2,-0.8,1.8,2471.547,13.29,0.064,224.4
2024-04-07T00:52:03,42.805,6.029,-0.032,-0.033,0.015,108.0,108.0,104.0,13.3,1505.2,356.7,-0.8,1.8,2471.556,13.29,0.045,224.1
2024-04-07T00:55:03,42.805,6.029,-0.042,-0.045,0.021,107.0,107.0,105.0,13.3,1505.2,5.1,-0.8,1.8,2471.573,13.29,0.061,223.0
2024-04-07T00:58:03,42.805,6.029,-0.045,-0.027,-0.001,108.0,107.0,105.0,13.4,1505.2,8.2,-0.7,1.8,2471.534,13.29,0.052,239.0
2024-04-07T01:04:03,42.805,6.029,-0.043,-0.019,-0.013,108.0,108.0,105.0,13.4,1505.2,4.8,-0.8,1.8,2471.614,13.29,0.047,246.2
2024-04-07T01:07:03,42.805,6.029,-0.039,-0.046,0.0,108.0,107.0,106.0,13.4,1505.2,351.2,-0.7,1.8,2471.598,13.29,0.06,220.3
2024-04-07T01:10:03,42.805,6.029,-0.042,-0.004,0.013,106.0,107.0,104.0,13.3,1505.2,358.2,-0.7,1.8,2471.606,13.29,0.042,264.6
2024-04-07T01:13:03,42.805,6.029,-0.051,-0.02,0.011,108.0,108.0,105.0,13.3,1505.2,8.4,-0.8,1.8,2471.597,13.29,0.054,248.6
2024-04-07T01:16:03,42.805,6.029,-0.039,-0.059,0.003,108.0,107.0,104.0,13.4,1505.2,354.5,-0.7,1.8,2471.574,13.29,0.07,213.5
2024-04-07T01:19:03,42.805,6.029,-0.057,-0.016,-0.034,108.0,107.0,105.0,13.4,1505.2,4.0,-0.7,1.8,2471.582,13.29,0.059,254.3
2024-04-07T01:22:03,42.805,6.029,-0.055,-0.043,-0.006,109.0,106.0,105.0,13.4,1505.2,2.9,-0.7,1.8,2471.575,13.29,0.069,232.0
2024-04-07T01:25:03,42.805,6.029,-0.041,-0.025,0.002,109.0,107.0,105.0,13.4,1505.2,358.9,-0.8,1.8,2471.596,13.29,0.048,238.6
2024-04-07T01:28:03,42.805,6.029,-0.052,-0.013,-0.007,108.0,106.0,105.0,13.4,1505.2,2.2,-0.7,1.8,2471.572,13.29,0.053,256.0
2024-04-07T01:31:03,42.805,6.029,-0.047,-0.041,-0.012,107.0,107.0,104.0,13.4,1505.2,356.6,-0.7,1.8,2471.593,13.29,0.062,228.9
2024-04-07T01:34:03,42.805,6.029,-0.063,-0.039,0.031,109.0,108.0,104.0,13.3,1505.2,8.6,-0.7,1.8,2471.614,13.29,0.074,238.2
2024-04-07T01:37:03,42.805,6.029,-0.042,-0.038,-0.003,107.0,108.0,105.0,13.3,1505.2,6.5,-0.8,1.8,2471.59,13.29,0.056,227.9
2024-04-07T01:40:03,42.805,6.029,-0.032,-0.028,0.013,108.0,106.0,105.0,13.3,1505.2,352.8,-0.8,1.8,2471.562,13.29,0.042,228.8
2024-04-07T01:43:03,42.805,6.029,-0.03,-0.02,0.018,108.0,106.0,104.0,13.4,1505.2,357.5,-0.8,1.8,2471.6,13.29,0.036,236.3
2024-04-07T01:46:03,42.805,6.029,-0.037,-0.041,0.003,109.0,106.0,103.0,13.3,1505.2,356.0,-0.8,1.8,2471.552,13.29,0.055,222.1
2024-04-07T01:49:03,42.805,6.029,-0.031,-0.032,-0.005,107.0,108.0,105.0,13.4,1505.2,354.0,-0.8,1.8,2471.573,13.29,0.044,224.1
2024-04-07T01:52:03,42.805,6.029,-0.041,-0.042,-0.029,107.0,107.0,105.0,13.4,1505.2,352.0,-0.8,1.8,2471.59,13.29,0.058,224.3
2024-04-07T01:55:03,42.805,6.029,-0.025,-0.045,-0.009,108.0,107.0,104.0,13.4,1505.2,352.7,-0.7,1.8,2471.587,13.29,0.051,209.1
2024-04-07T01:58:03,42.805,6.029,-0.025,-0.036,-0.023,110.0,106.0,102.0,13.4,1505.2,4.6,-0.7,1.8,2471.582,13.29,0.043,214.8
2024-04-07T02:04:03,42.805,6.029,-0.038,-0.009,0.009,108.0,107.0,104.0,13.4,1505.2,8.9,-0.8,1.8,2471.623,13.29,0.039,256.7
2024-04-07T02:07:03,42.805,6.029,-0.037,-0.023,-0.024,108.0,107.0,103.0,13.4,1505.2,351.7,-0.8,1.8,2471.63,13.29,0.043,238.1
2024-04-07T02:10:03,42.805,6.029,-0.032,-0.035,-0.024,108.0,107.0,105.0,13.4,1505.2,0.5,-0.7,1.8,2471.595,13.29,0.047,222.4
2024-04-07T02:13:03,42.805,6.029,-0.057,-0.038,-0.004,109.0,108.0,104.0,13.4,1505.2,9.5,-0.8,1.8,2471.618,13.29,0.068,236.3
2024-04-07T02:16:03,42.805,6.029,-0.038,-0.031,0.007,108.0,108.0,103.0,13.3,1505.2,2.4,-0.7,1.8,2471.626,13.29,0.049,230.8
2024-04-07T02:19:03,42.805,6.029,-0.045,-0.046,-0.008,108.0,107.0,103.0,13.4,1505.2,357.1,-0.8,1.8,2471.595,13.29,0.064,224.4
2024-04-07T02:22:03,42.805,6.029,-0.056,-0.018,-0.025,107.0,108.0,104.0,13.4,1505.2,353.4,-0.8,1.8,2471.651,13.29,0.058,252.2
2024-04-07T02:25:03,42.805,6.029,-0.052,-0.034,-0.008,108.0,106.0,105.0,13.4,1505.2,358.1,-0.8,1.8,2471.62,13.29,0.062,236.8
2024-04-07T02:28:03,42.805,6.029,-0.028,-0.035,-0.007,109.0,106.0,105.0,13.3,1505.2,0.5,-0.8,1.8,2471.614,13.29,0.044,218.7
2024-04-07T02:31:03,42.805,6.029,-0.052,-0.032,0.016,108.0,107.0,104.0,13.3,1505.2,4.8,-0.8,1.8,2471.651,13.29,0.061,238.4
2024-04-07T02:34:03,42.805,6.029,-0.033,-0.056,-0.004,108.0,107.0,104.0,13.4,1505.2,3.5,-0.8,1.8,2471.645,13.29,0.064,210.5
2024-04-07T02:37:03,42.805,6.029,-0.041,-0.026,0.009,108.0,107.0,104.0,13.4,1505.2,2.3,-0.7,1.8,2471.633,13.29,0.048,237.6
2024-04-07T02:40:03,42.805,6.029,-0.047,-0.057,-0.02,108.0,107.0,105.0,13.3,1505.2,358.9,-0.7,1.8,2471.612,13.29,0.073,219.5
2024-04-07T02:43:03,42.805,6.029,-0.017,-0.041,0.017,108.0,107.0,104.0,13.4,1505.2,356.9,-0.7,1.8,2471.678,13.29,0.044,202.5
2024-04-07T02:46:03,42.805,6.029,-0.036,-0.029,-0.004,109.0,106.0,104.0,13.4,1505.2,0.0,-0.8,1.8,2471.613,13.29,0.046,231.1
2024-04-07T02:49:03,42.805,6.029,-0.031,-0.023,0.009,108.0,108.0,104.0,13.3,1505.2,8.2,-0.7,1.8,2471.657,13.29,0.038,233.4
2024-04-07T02:52:03,42.805,6.029,-0.036,-0.026,-0.02,107.0,107.0,104.0,13.4,1505.2,2.6,-0.8,1.8,2471.648,13.29,0.044,234.2
2024-04-07T02:55:03,42.805,6.029,-0.041,-0.027,-0.047,108.0,107.0,104.0,13.4,1505.2,358.1,-0.7,1.8,2471.675,13.29,0.049,236.6
2024-04-07T02:58:03,42.805,6.029,-0.065,-0.023,-0.001,109.0,108.0,104.0,13.3,1505.2,4.5,-0.8,1.8,2471.656,13.29,0.068,250.5
2024-04-07T04:04:03,42.805,6.029,-0.063,-0.033,-0.028,108.0,107.0,104.0,13.3,1505.2,8.7,-0.8,1.8,2472.187,13.28,0.071,242.4
2024-04-07T04:07:03,42.805,6.029,-0.028,-0.01,0.001,107.0,107.0,104.0,13.4,1505.2,351.8,-0.8,1.8,2472.184,13.28,0.029,250.4
2024-04-07T04:10:03,42.805,6.029,-0.041,-0.025,-0.006,108.0,108.0,104.0,13.3,1505.2,3.4,-0.8,1.8,2472.155,13.28,0.048,238.6
2024-04-07T04:13:03,42.805,6.029,-0.04,-0.017,-0.005,109.0,106.0,103.0,13.3,1505.2,355.9,-0.8,1.8,2472.067,13.29,0.043,247.0
2024-04-07T04:16:03,42.805,6.029,-0.032,-0.02,0.02,109.0,107.0,105.0,13.4,1505.2,4.2,-0.8,1.8,2472.055,13.29,0.037,238.0
2024-04-07T04:19:05,42.805,6.029,-0.04,-0.009,-0.015,109.0,108.0,104.0,13.4,1505.2,0.5,-0.7,1.8,2472.015,13.29,0.041,257.3
2024-04-07T04:22:03,42.805,6.029,-0.043,-0.009,-0.003,108.0,107.0,105.0,13.3,1505.2,4.0,-0.8,1.8,2471.991,13.29,0.043,258.2
2024-04-07T04:25:03,42.805,6.029,-0.036,0.016,-0.003,108.0,108.0,105.0,13.4,1505.2,355.7,-0.8,1.8,2471.968,13.29,0.039,294.0
2024-04-07T04:28:03,42.805,6.029,-0.033,-0.017,-0.004,108.0,107.0,106.0,13.3,1505.2,2.7,-0.8,1.8,2471.996,13.29,0.037,242.7
2024-04-07T04:31:03,42.805,6.029,-0.034,-0.005,0.005,109.0,106.0,105.0,13.4,1505.2,359.4,-0.8,1.8,2471.941,13.29,0.034,261.6
2024-04-07T04:34:03,42.805,6.029,-0.043,-0.004,0.015,107.0,107.0,104.0,13.4,1505.2,8.1,-0.7,1.8,2471.903,13.29,0.043,264.7
2024-04-07T04:37:03,42.805,6.029,-0.041,-0.022,0.005,108.0,107.0,104.0,13.3,1505.2,352.5,-0.8,1.8,2471.887,13.29,0.046,241.8
2024-04-07T04:40:03,42.805,6.029,-0.05,0.017,-0.015,109.0,107.0,104.0,13.4,1505.2,1.7,-0.8,1.8,2471.886,13.29,0.052,288.8
2024-04-07T04:43:03,42.805,6.029,-0.037,0.002,0.009,109.0,107.0,104.0,13.4,1505.2,0.5,-0.8,1.8,2471.869,13.29,0.037,273.1
2024-04-07T04:46:03,42.805,6.029,-0.05,-0.001,-0.027,109.0,107.0,104.0,13.3,1505.2,5.9,-0.7,1.8,2471.904,13.29,0.05,268.9
2024-04-07T04:49:03,42.805,6.029,-0.046,0.007,0.0,109.0,108.0,104.0,13.4,1505.2,355.1,-0.8,1.8,2471.907,13.29,0.046,278.7
2024-04-07T04:52:03,42.805,6.029,-0.029,-0.014,-0.009,108.0,108.0,105.0,13.3,1505.2,3.3,-0.7,1.8,2471.841,13.29,0.032,244.2
2024-04-07T04:55:03,42.805,6.029,-0.013,0.017,-0.002,109.0,107.0,105.0,13.4,1505.2,3.4,-0.8,1.8,2471.842,13.29,0.021,322.6
2024-04-07T04:58:03,42.805,6.029,-0.039,0.013,-0.009,108.0,107.0,104.0,13.3,1505.2,358.8,-0.8,1.8,2471.816,13.29,0.041,288.4
2024-04-07T05:04:03,42.805,6.029,-0.044,0.029,-0.001,108.0,109.0,105.0,13.4,1505.2,354.5,-0.7,1.8,2471.843,13.29,0.052,303.4
2024-04-07T05:07:03,42.805,6.029,-0.042,-0.002,-0.021,108.0,109.0,104.0,13.3,1505.2,358.3,-0.8,1.8,2471.844,13.29,0.042,267.3
2024-04-07T05:10:03,42.805,6.029,-0.02,0.019,-0.001,109.0,106.0,104.0,13.4,1505.2,2.9,-0.8,1.8,2471.831,13.29,0.027,313.5
2024-04-07T05:13:03,42.805,6.029,-0.04,0.024,-0.002,109.0,108.0,105.0,13.4,1505.2,8.6,-0.8,1.8,2471.858,13.29,0.046,301.0
2024-04-07T05:16:03,42.805,6.029,-0.035,-0.004,0.008,109.0,108.0,105.0,13.3,1505.2,354.5,-0.7,1.8,2471.847,13.29,0.035,263.5
2024-04-07T05:19:04,42.805,6.029,-0.036,0.021,-0.015,107.0,109.0,105.0,13.4,1505.2,2.9,-0.8,1.8,2471.842,13.29,0.041,300.3
2024-04-07T05:22:03,42.805,6.029,-0.027,0.027,-0.033,109.0,107.0,104.0,13.4,1505.2,3.6,-0.8,1.8,2471.841,13.29,0.038,315.0
2024-04-07T05:25:03,42.805,6.029,-0.031,0.013,0.007,108.0,108.0,105.0,13.4,1505.2,8.4,-0.8,1.8,2471.806,13.29,0.033,292.7
2024-04-07T05:28:03,42.805,6.029,-0.018,0.009,-0.034,108.0,107.0,105.0,13.4,1505.2,355.7,-0.7,1.8,2471.835,13.29,0.02,296.6
2024-04-07T05:31:03,42.805,6.029,-0.055,0.033,0.017,108.0,108.0,104.0,13.4,1505.2,5.7,-0.8,1.8,2471.826,13.29,0.064,301.0
2024-04-07T05:34:03,42.805,6.029,-0.027,0.03,-0.029,108.0,108.0,104.0,13.4,1505.2,6.4,-0.8,1.8,2471.794,13.29,0.04,318.0
2024-04-07T05:37:03,42.805,6.029,-0.041,0.008,0.016,108.0,108.0,105.0,13.4,1505.2,5.5,-0.8,1.8,2471.815,13.29,0.041,281.0
2024-04-07T05:40:03,42.805,6.029,-0.035,0.014,0.008,109.0,107.0,105.0,13.4,1505.2,356.8,-0.7,1.8,2471.803,13.29,0.037,291.8
2024-04-07T05:43:03,42.805,6.029,-0.043,0.017,-0.018,109.0,107.0,106.0,13.4,1505.2,352.8,-0.7,1.8,2471.807,13.29,0.046,291.6
2024-04-07T05:46:03,42.805,6.029,-0.035,0.022,-0.004,108.0,108.0,105.0,13.3,1505.2,0.0,-0.8,1.8,2471.797,13.29,0.041,302.2
2024-04-07T05:49:03,42.805,6.029,-0.024,0.011,-0.03,108.0,107.0,104.0,13.3,1505.2,359.4,-0.8,1.8,2471.791,13.29,0.026,294.6
2024-04-07T05:52:03,42.805,6.029,-0.04,0.011,-0.033,108.0,108.0,104.0,13.4,1505.2,8.9,-0.7,1.8,2471.816,13.29,0.041,285.4
2024-04-07T05:55:03,42.805,6.029,-0.008,0.014,0.005,109.0,107.0,105.0,13.3,1505.2,6.5,-0.8,1.8,2471.828,13.29,0.016,330.3
2024-04-07T05:58:03,42.805,6.029,-0.028,0.016,0.003,108.0,107.0,104.0,13.4,1505.2,1.6,-0.8,1.8,2471.809,13.29,0.032,299.7
2024-04-07T06:04:03,42.805,6.029,-0.037,0.015,-0.023,108.0,108.0,105.0,13.4,1505.2,0.0,-0.8,1.8,2471.818,13.29,0.039,292.1
2024-04-07T06:07:03,42.805,6.029,-0.044,0.009,-0.004,109.0,107.0,105.0,13.3,1505.2,0.0,-0.8,1.8,2471.837,13.29,0.044,281.6
2024-04-07T06:10:03,42.805,6.029,-0.029,0.031,-0.015,108.0,108.0,105.0,13.4,1505.2,359.4,-0.8,1.8,2471.848,13.29,0.042,316.9
2024-04-07T06:13:03,42.805,6.029,-0.016,0.015,0.0,108.0,107.0,105.0,13.4,1505.2,9.5,-0.8,1.8,2471.857,13.29,0.021,313.1
2024-04-07T06:16:03,42.805,6.029,-0.023,0.029,-0.026,107.0,108.0,104.0,13.4,1505.2,357.8,-0.8,1.8,2471.847,13.29,0.037,321.6
2024-04-07T06:19:06,42.805,6.029,-0.011,0.015,-0.028,109.0,106.0,103.0,13.3,1505.2,356.3,-0.8,1.8,2471.778,13.29,0.018,323.7
2024-04-07T06:22:03,42.805,6.029,-0.024,0.032,-0.008,108.0,108.0,104.0,13.3,1505.2,356.6,-0.8,1.8,2471.812,13.29,0.04,323.1
2024-04-07T06:25:03,42.805,6.029,-0.021,0.033,0.017,109.0,107.0,106.0,13.4,1505.2,6.1,-0.8,1.8,2471.802,13.29,0.039,327.5
2024-04-07T06:28:03,42.805,6.029,-0.036,0.03,-0.002,110.0,108.0,105.0,13.4,1505.2,8.2,-0.8,1.8,2471.802,13.29,0.046,309.8
2024-04-07T06:31:03,42.805,6.029,-0.03,0.02,-0.018,109.0,108.0,105.0,13.4,1505.2,355.8,-0.7,1.8,2471.809,13.29,0.036,303.7
2024-04-07T06:34:03,42.805,6.029,-0.061,0.001,-0.014,108.0,108.0,105.0,13.4,1505.2,356.6,-0.8,1.8,2471.797,13.29,0.061,270.9
2024-04-07T06:37:03,42.805,6.029,-0.039,0.039,-0.002,110.0,108.0,105.0,13.3,1505.2,7.7,-0.7,1.8,2471.801,13.29,0.055,315.0
2024-04-07T06:40:03,42.805,6.029,-0.029,0.04,-0.031,109.0,106.0,105.0,13.4,1505.2,352.6,-0.7,1.8,2471.821,13.29,0.049,324.1
2024-04-07T06:43:03,42.805,6.029,-0.022,0.032,0.015,109.0,108.0,105.0,13.3,1505.2,2.8,-0.8,1.8,2471.843,13.29,0.038,325.5
2024-04-07T06:46:03,42.805,6.029,-0.041,0.023,-0.04,108.0,108.0,106.0,13.4,1505.2,8.7,-0.8,1.8,2471.8,13.29,0.047,299.3
2024-04-07T06:49:03,42.805,6.029,-0.034,0.01,0.005,108.0,108.0,105.0,13.3,1505.2,353.3,-0.8,1.8,2471.756,13.29,0.035,286.4
2024-04-07T06:52:03,42.805,6.029,-0.049,0.031,-0.006,109.0,107.0,104.0,13.4,1505.2,3.0,-0.7,1.8,2471.795,13.29,0.057,302.3
2024-04-07T06:55:03,42.805,6.029,-0.018,0.049,-0.032,108.0,108.0,105.0,13.4,1505.2,358.3,-0.8,1.8,2471.789,13.29,0.052,339.8
2024-04-07T06:58:03,42.805,6.029,-0.012,0.034,-0.011,109.0,108.0,105.0,13.4,1505.2,5.5,-0.8,1.9,2471.809,13.29,0.036,340.6
2024-04-07T07:04:03,42.805,6.029,-0.042,0.034,-0.032,107.0,108.0,104.0,13.4,1505.2,358.4,-0.8,1.8,2471.813,13.29,0.054,309.0
2024-04-07T07:07:03,42.805,6.029,-0.02,0.044,-0.015,109.0,107.0,105.0,13.3,1505.2,356.5,-0.7,1.8,2471.743,13.29,0.048,335.6
2024-04-07T07:10:03,42.805,6.029,-0.032,0.02,-0.035,108.0,108.0,105.0,13.4,1505.2,2.9,-0.8,1.8,2471.841,13.29,0.037,302.0
2024-04-07T07:13:03,42.805,6.029,-0.011,0.023,-0.012,109.0,108.0,105.0,13.4,1505.2,6.7,-0.8,1.8,2471.808,13.29,0.025,334.4
2024-04-07T07:16:03,42.805,6.029,-0.028,0.035,-0.021,108.0,108.0,105.0,13.4,1505.2,355.0,-0.7,1.8,2471.804,13.29,0.044,321.3
2024-04-07T07:19:03,42.805,6.029,-0.027,0.029,0.004,109.0,108.0,104.0,13.3,1505.2,4.6,-0.7,1.8,2471.768,13.29,0.039,317.0
2024-04-07T07:22:03,42.805,6.029,-0.03,0.027,-0.041,109.0,107.0,106.0,13.4,1505.2,6.6,-0.8,1.8,2471.804,13.29,0.04,312.0
2024-04-07T07:25:03,42.805,6.029,-0.031,0.045,-0.003,109.0,107.0,104.0,13.4,1505.2,3.3,-0.7,1.8,2471.723,13.29,0.054,325.4
2024-04-07T07:28:03,42.805,6.029,-0.057,0.012,0.011,108.0,108.0,105.0,13.4,1505.2,351.4,-0.8,1.8,2471.809,13.29,0.058,281.9
2024-04-07T07:31:03,42.805,6.029,-0.012,0.019,0.01,108.0,108.0,105.0,13.4,1505.2,352.6,-0.8,1.8,2471.77,13.29,0.022,327.7
2024-04-07T07:34:03,42.805,6.029,-0.037,0.041,0.017,109.0,108.0,104.0,13.3,1505.2,358.9,-0.7,1.8,2471.782,13.29,0.055,317.9
2024-04-07T07:37:03,42.805,6.029,-0.036,0.039,0.016,109.0,108.0,105.0,13.3,1505.2,357.7,-0.8,1.8,2471.816,13.29,0.053,317.3
2024-04-07T07:40:03,42.805,6.029,-0.036,0.033,-0.012,108.0,107.0,105.0,13.4,1505.2,5.8,-0.8,1.8,2471.798,13.29,0.048,312.5
2024-04-07T07:43:03,42.805,6.029,-0.032,0.027,-0.019,109.0,108.0,105.0,13.4,1505.2,356.2,-0.8,1.8,2471.761,13.29,0.041,310.2
2024-04-07T07:46:03,42.805,6.029,-0.029,0.04,0.01,109.0,108.0,104.0,13.4,1505.2,352.8,-0.7,1.8,2471.756,13.29,0.049,324.1
2024-04-07T07:49:03,42.805,6.029,-0.02,0.023,-0.004,108.0,108.0,105.0,13.4,1505.2,359.4,-0.8,1.8,2471.801,13.29,0.03,319.0
2024-04-07T07:52:03,42.805,6.029,-0.038,0.032,0.009,108.0,107.0,104.0,13.4,1505.2,359.4,-0.8,1.8,2471.75,13.29,0.049,310.1
2024-04-07T07:55:03,42.805,6.029,-0.044,0.017,-0.046,108.0,109.0,105.0,13.4,1505.2,356.0,-0.7,1.8,2471.751,13.29,0.047,291.1
2024-04-07T07:58:03,42.805,6.029,-0.016,0.036,-0.008,109.0,108.0,105.0,13.3,1505.2,6.9,-0.7,1.8,2471.779,13.29,0.039,336.0
2024-04-07T08:04:03,42.805,6.029,-0.035,0.035,-0.009,109.0,106.0,105.0,13.4,1505.2,355.9,-0.8,1.8,2471.76,13.29,0.049,315.0
2024-04-07T08:07:03,42.805,6.029,-0.036,0.032,-0.026,108.0,108.0,104.0,13.4,1505.2,3.3,-0.8,1.8,2471.78,13.29,0.048,311.6
2024-04-07T08:10:03,42.805,6.029,-0.058,0.019,-0.008,108.0,107.0,104.0,13.4,1505.2,357.8,-0.8,1.8,2471.774,13.29,0.061,288.1
2024-04-07T08:13:03,42.805,6.029,-0.047,0.032,-0.008,109.0,107.0,105.0,13.4,1505.2,353.3,-0.7,1.8,2471.745,13.29,0.056,304.2
2024-04-07T08:16:03,42.805,6.029,-0.04,0.032,-0.009,110.0,107.0,104.0,13.4,1505.2,356.6,-0.7,1.8,2471.775,13.29,0.051,308.7
2024-04-07T08:19:03,42.805,6.029,-0.026,0.021,-0.027,109.0,107.0,105.0,13.4,1505.2,0.5,-0.7,1.8,2471.774,13.29,0.033,308.9
2024-04-07T08:22:03,42.805,6.029,-0.019,0.042,-0.005,109.0,108.0,106.0,13.4,1505.2,8.7,-0.8,1.8,2471.729,13.29,0.046,335.7
2024-04-07T08:25:03,42.805,6.029,-0.028,0.042,-0.02,109.0,109.0,105.0,13.4,1505.2,4.4,-0.7,1.8,2471.74,13.29,0.05,326.3
2024-04-07T08:28:03,42.805,6.029,-0.032,0.036,0.002,109.0,108.0,106.0,13.3,1505.2,353.3,-0.7,1.9,2471.736,13.29,0.048,318.4
2024-04-07T08:31:03,42.805,6.029,-0.031,0.045,0.003,108.0,107.0,106.0,13.4,1505.2,359.4,-0.7,1.8,2471.763,13.29,0.054,325.4
2024-04-07T08:34:03,42.805,6.029,-0.042,0.046,-0.019,110.0,107.0,105.0,13.3,1505.2,7.7,-0.7,1.8,2471.699,13.29,0.062,317.6
2024-04-07T08:37:03,42.805,6.029,-0.036,0.036,-0.004,109.0,108.0,105.0,13.3,1505.2,353.9,-0.7,1.8,2471.753,13.29,0.05,315.0
2024-04-07T08:40:03,42.805,6.029,-0.043,0.014,-0.003,109.0,108.0,105.0,13.3,1505.2,358.7,-0.8,1.8,2471.752,13.29,0.045,288.0
2024-04-07T08:43:03,42.805,6.029,-0.034,0.06,-0.005,109.0,107.0,105.0,13.4,1505.2,2.2,-0.7,1.8,2471.741,13.29,0.068,330.5
2024-04-07T08:46:03,42.805,6.029,-0.025,0.047,-0.009,108.0,106.0,105.0,13.4,1505.2,4.2,-0.8,1.8,2471.741,13.29,0.053,332.0
2024-04-07T08:49:03,42.805,6.029,-0.03,0.036,-0.035,109.0,107.0,105.0,13.3,1505.2,5.9,-0.8,1.8,2471.73,13.29,0.046,320.2
2024-04-07T08:52:03,42.805,6.029,-0.037,0.029,-0.026,109.0,108.0,106.0,13.3,1505.2,0.0,-0.8,1.8,2471.724,13.29,0.047,308.1
2024-04-07T08:55:03,42.805,6.029,-0.028,0.051,0.008,109.0,109.0,105.0,13.4,1505.2,7.1,-0.7,1.8,2471.731,13.29,0.058,331.2
2024-04-07T08:58:03,42.805,6.029,-0.032,0.032,0.002,108.0,108.0,106.0,13.4,1505.2,352.1,-0.7,1.8,2471.733,13.29,0.045,315.0
2024-04-07T09:04:03,42.805,6.029,-0.039,0.049,-0.008,107.0,107.0,105.0,13.4,1505.2,8.0,-0.8,1.8,2471.757,13.29,0.062,321.5
2024-04-07T09:07:03,42.805,6.029,-0.047,0.033,-0.004,108.0,109.0,105.0,13.4,1505.2,352.7,-0.8,1.8,2471.751,13.29,0.057,305.1
2024-04-07T09:10:03,42.805,6.029,-0.053,0.029,0.008,109.0,108.0,104.0,13.3,1505.2,357.6,-0.8,1.8,2471.741,13.29,0.06,298.7
2024-04-07T09:13:03,42.805,6.029,-0.045,0.035,0.027,109.0,107.0,105.0,13.3,1505.2,357.1,-0.8,1.8,2471.701,13.29,0.057,307.9
2024-04-07T09:16:03,42.805,6.029,-0.031,0.031,0.001,108.0,108.0,106.0,13.4,1505.2,359.4,-0.7,1.8,2471.696,13.29,0.043,315.0
2024-04-07T09:19:03,42.805,6.029,-0.031,0.038,0.012,108.0,106.0,106.0,13.3,1505.2,9.4,-0.8,1.8,2471.709,13.29,0.049,320.8
2024-04-07T09:22:03,42.805,6.029,-0.022,0.016,0.017,108.0,107.0,105.0,13.3,1505.2,5.4,-0.7,1.8,2471.7,13.29,0.027,306.0
2024-04-07T09:25:03,42.805,6.029,-0.018,0.03,0.0,109.0,107.0,105.0,13.4,1505.2,2.8,-0.8,1.8,2471.698,13.29,0.034,329.0
2024-04-07T09:28:03,42.805,6.029,-0.038,0.033,0.018,109.0,109.0,106.0,13.4,1505.2,2.1,-0.8,1.8,2471.708,13.29,0.05,311.0
2024-04-07T09:31:03,42.805,6.029,-0.029,0.054,0.006,108.0,107.0,105.0,13.4,1505.2,8.2,-0.8,1.8,2471.68,13.29,0.061,331.8
2024-04-07T09:34:03,42.805,6.029,-0.043,0.053,-0.007,108.0,106.0,104.0,13.4,1505.2,0.5,-0.8,1.8,2471.673,13.29,0.068,320.9
2024-04-07T09:37:03,42.805,6.029,-0.031,0.052,-0.029,109.0,107.0,104.0,13.4,1505.2,3.6,-0.8,1.9,2471.673,13.29,0.06,329.2
2024-04-07T09:40:03,42.805,6.029,-0.016,0.042,-0.01,109.0,107.0,105.0,13.3,1505.2,0.5,-0.7,1.8,2471.663,13.29,0.044,339.1
2024-04-07T09:43:03,42.805,6.029,-0.023,0.055,0.0,109.0,107.0,104.0,13.3,1505.2,7.6,-0.8,1.8,2471.665,13.29,0.059,337.3
2024-04-07T09:46:03,42.805,6.029,-0.056,0.034,0.007,109.0,107.0,105.0,13.4,1505.2,351.2,-0.8,1.8,2471.659,13.29,0.065,301.3
2024-04-07T09:49:03,42.805,6.029,-0.022,0.049,0.012,109.0,107.0,105.0,13.3,1505.2,3.4,-0.7,1.8,2471.676,13.29,0.053,335.8
2024-04-07T09:52:03,42.805,6.029,-0.028,0.038,0.007,109.0,107.0,104.0,13.4,1505.2,358.7,-0.7,1.8,2471.636,13.29,0.047,323.6
2024-04-07T09:55:03,42.805,6.029,-0.019,0.053,-0.03,108.0,108.0,105.0,13.3,1505.2,7.6,-0.7,1.8,2471.686,13.29,0.056,340.3
2024-04-07T09:58:03,42.805,6.029,-0.035,0.051,-0.022,108.0,107.0,104.0,13.4,1505.2,2.7,-0.7,1.8,2471.651,13.29,0.061,325.5
2024-04-07T10:04:03,42.805,6.029,-0.034,0.043,0.015,108.0,106.0,106.0,13.4,1505.2,2.8,-0.7,1.8,2471.692,13.29,0.054,321.7
2024-04-07T10:07:03,42.805,6.029,-0.048,0.027,0.002,108.0,107.0,104.0,13.3,1505.2,357.6,-0.8,1.8,2471.646,13.29,0.055,299.4
2024-04-07T10:10:03,42.805,6.029,-0.029,0.055,-0.012,108.0,107.0,105.0,13.4,1505.2,8.5,-0.8,1.8,2471.684,13.29,0.062,332.2
2024-04-07T10:13:03,42.805,6.029,-0.033,0.066,-0.012,109.0,107.0,105.0,13.3,1505.2,6.7,-0.7,1.8,2471.638,13.29,0.073,333.4
2024-04-07T10:16:03,42.805,6.029,-0.038,0.05,0.001,108.0,107.0,105.0,13.4,1505.2,6.6,-0.7,1.8,2471.651,13.29,0.062,322.8
2024-04-07T10:19:03,42.805,6.029,-0.041,0.052,0.002,109.0,107.0,104.0,13.4,1505.2,358.9,-0.7,1.8,2471.657,13.29,0.066,321.7
2024-04-07T10:22:03,42.805,6.029,-0.038,0.036,-0.008,109.0,108.0,106.0,13.4,1505.2,358.1,-0.7,1.8,2471.651,13.29,0.052,313.5
2024-04-07T10:25:03,42.805,6.029,-0.035,0.051,0.002,110.0,108.0,105.0,13.4,1505.2,2.8,-0.8,1.8,2471.637,13.29,0.061,325.5
2024-04-07T10:28:03,42.805,6.029,-0.025,0.067,-0.023,110.0,107.0,105.0,13.3,1505.2,9.1,-0.8,1.8,2471.639,13.29,0.071,339.5
2024-04-07T10:31:03,42.805,6.029,-0.04,0.055,-0.004,109.0,108.0,104.0,13.4,1505.2,2.1,-0.7,1.8,2471.661,13.29,0.068,324.0
2024-04-07T10:34:03,42.805,6.029,-0.041,0.037,0.005,109.0,108.0,105.0,13.3,1505.2,355.9,-0.8,1.8,2471.652,13.29,0.055,312.1
2024-04-07T10:37:03,42.805,6.029,-0.042,0.037,-0.004,109.0,108.0,105.0,13.3,1505.2,2.8,-0.7,1.8,2471.59,13.29,0.055,311.4
2024-04-07T10:40:03,42.805,6.029,-0.033,0.054,-0.025,109.0,107.0,106.0,13.4,1505.2,352.5,-0.7,1.8,2471.622,13.29,0.063,328.6
2024-04-07T10:43:03,42.805,6.029,-0.054,0.049,-0.009,109.0,108.0,105.0,13.3,1505.2,357.6,-0.8,1.8,2471.618,13.29,0.072,312.2
2024-04-07T10:46:03,42.805,6.029,-0.03,0.047,-0.001,109.0,108.0,105.0,13.4,1505.2,358.3,-0.7,1.8,2471.61,13.29,0.055,327.4
2024-04-07T10:49:03,42.805,6.029,-0.037,0.045,0.007,109.0,107.0,105.0,13.4,1505.2,4.5,-0.7,1.8,2471.626,13.29,0.058,320.6
2024-04-07T10:52:03,42.805,6.029,-0.03,0.065,0.006,109.0,107.0,104.0,13.4,1505.2,1.0,-0.8,1.8,2471.597,13.29,0.071,335.2
2024-04-07T10:55:03,42.805,6.029,-0.038,0.022,0.015,109.0,107.0,104.0,13.4,1505.2,357.5,-0.8,1.8,2471.589,13.29,0.043,300.1
2024-04-07T10:58:03,42.805,6.029,-0.02,0.026,-0.024,109.0,107.0,104.0,13.4,1505.2,357.8,-0.7,1.8,2471.604,13.29,0.032,322.4